Miscellaneous Local Product
Issued by NWS North Platte, NE

Home | Current Version | Previous Version | Text Only | Print | Product List | Glossary On
Versions: 1 2 3 4 5 6 7 8 9 10 11 12 13 14 15 16 17 18 19 20 21 22 23 24 25 26 27 28 29 30 31 32 33 34 35 36 37 38 39 40 41 42 43 44 45 46 47 48 49 50
000
AXUS43 KLBF 031210
MISLBF


WESTERN AND NORTH CENTRAL NEBRASKA HOURLY WEATHER ROUNDUP
NATIONAL WEATHER SERVICE NORTH PLATTE NE
700 AM CDT TUE MAY 03 2016

NOTE: "FAIR" INDICATES FEW OR NO CLOUDS BELOW 12,000 FEET WITH NO
SIGNIFICANT WEATHER AND/OR OBSTRUCTIONS TO VISIBILITY.

NOTE: STATIONS NOT REPORTING VARIABLES SUCH AS SKY/WEATHER OR
PRESSURE ARE PROVIDED BY RAWS AND APRS NETWORKS AND ARE NOT UNDER
NATIONAL WEATHER SERVICE QUALITY CONTROL.

...OBSERVATIONS IN AND NEAR THE EASTERN PANHANDLE OF NEBRASKA...

CITY           SKY/WX    TMP DP  RH WIND       PRES   REMARKS
PINE RIDGE     FOG       29  27  92 CALM      30.09S VSB 1
CHADRON        CLEAR     34  32  92 SW3       30.11R
ALLIANCE       CLEAR     32  30  92 NW6       30.10R WCI  26
SIDNEY         CLEAR     38  33  82 NW14      30.10R WCI  30
CRESCENT LAKE    N/A     35  35 100 NW5         N/A  WCI  31
BIG SPRINGS      N/A     37  36  95 SW3         N/A
$$

...OBSERVATIONS IN NORTHERN NEBRASKA AND FAR SOUTHERN SOUTH DAKOTA...

CITY           SKY/WX    TMP DP  RH WIND       PRES   REMARKS
WINNER         FAIR      40  36  86 SW7       30.06R
VALENTINE      CLEAR     33  31  92 W7        30.08R WCI  27
THEDFORD       CLEAR     37  36  99 CALM      30.08R FOG
AINSWORTH      CLEAR     34  34  99 SW3       30.07R
O`NEILL        CLEAR     41  39  93 W3        30.06R
ORD            CLEAR     35  34  96 NW6       30.05R WCI  30
BROKEN BOW     CLEAR     40  39  97 N9        30.05R WCI  34
VALENTINE NWR    N/A     36  36  99 CALM        N/A
BUTTE            N/A     40  38  92 CALM        N/A
HALSEY           N/A     38  38 100 CALM        N/A
CHAMBERS         N/A     39  37  91 CALM        N/A
EWING            N/A     40  39  95 CALM        N/A
$$

...OBSERVATIONS IN SOUTHWEST NEBRASKA AND FAR NORTHEAST COLORADO...

CITY           SKY/WX    TMP DP  RH WIND       PRES   REMARKS
HOLYOKE        FAIR      37  36  93 NW7       30.09R WCI  32
IMPERIAL       CLEAR     40  38  93 NW5       30.07R
OGALLALA       CLEAR     37  35  93 W3        30.08R
NORTH PLATTE   FOG       39  39 100 NW3       30.07R VSB 1/4
MCCOOK         CLEAR     38  37  97 NW6       30.05R WCI  33
LEXINGTON      CLEAR     38  36  92 W3        30.05R
PAXTON           N/A     42  40  92 NW3         N/A
STAPLETON        N/A     37  36  97 CALM        N/A
GOTHENBURG       N/A     42  38  86 NW5         N/A
CALLAWAY         N/A     41  40  95 N6          N/A
$$

...OBSERVATIONS IN CENTRAL LINCOLN COUNTY AREA...

CITY           SKY/WX    TMP DP  RH WIND       PRES   REMARKS
N.P. AIRPORT   FOG       39  39 100 NW3       30.07R VSB 1/4
N.P. DOWNTOWN    N/A     41  40  97 CALM        N/A
N.P. HILLCREST   N/A     39  38  97 CALM        N/A
$$

...SOME OBSERVATIONS FROM AROUND THE REGION...

CITY           SKY/WX    TMP DP  RH WIND       PRES   REMARKS
DENVER         PTCLDY    41  27  57 W12       30.18R
LARAMIE        CLOUDY    26  23  88 CALM      30.24R
CHEYENNE       MOCLDY    41  28  60 NW10      30.17R
SCOTTSBLUFF    CLEAR     37  33  85 NW6       30.12R WCI  32
RAPID CITY     CLEAR     41  32  70 NW7       30.08R
BISMARCK       CLOUDY    42  39  89 W5        30.01R
PIERRE         CLEAR     38  36  92 W5        30.03R WCI  34
SIOUX FALLS    PTCLDY    36  35  96 CALM      30.02S
OMAHA          PTCLDY    43  41  93 SE5       30.05R
GRAND ISLAND   CLEAR     38  35  89 NW3       30.06R
KANSAS CITY    PTCLDY    45  43  93 W3        30.06S
WICHITA        PTCLDY    43  39  86 SE5       30.07R
OKLAHOMA CITY  PTCLDY    43  41  93 S3        30.09S
DALLAS         CLEAR     49  44  83 CALM      30.09R
AMARILLO       CLEAR     39  34  82 SW9       30.08F WCI  33
DODGE CITY     CLOUDY    45  36  70 SW10      30.04F
HAYS           PTCLDY    45  34  65 NE3       30.02F
GOODLAND       MOCLDY    41  39  93 NW8       30.06R
$$




USA.gov is the U.S. government's official web portal to all federal, state and local government web resources and services.